Back to catalog

CZ-6A DEB

AlivePO
NORAD 54886·DEBRIS·🇨🇳 China

Launched Nov 11, 2022 from Taiyuan Satellite Launch Center

Loading…

Next Passes (next 24 hours)

TLE

FreshSource: Space-Track

Epoch: Sep 14, 2026, 11:14 UTC

1 54886U 22151PX  26257.46809935  .00000077  00000-0  15596-3 0  9991
2 54886  98.9130  78.9358 0492755 268.9482  85.5168 13.18835627184778

Track CZ-6A DEB in real time with AllMySat

Download on the App Store